Weather in Maun

Botswana     19°59′32″S   23°25′18″E
temp.,
°C
wind,
m/s
gust,
m/s
humid.,
%
clouds,
%
prec.,
mm/h
press.,
hPa
HPBL,
m
15 june, tue
tue1523:00+14ese34320 0.0 102143
02:00+13ese22340 0.0 101911
05:00+11e334019 0.0 102027
08:00+12e26340 0.0 1021133
11:00+23e34150 0.0 1019700
14:00+28e11124 0.0 10152117
17:00+25ese01165 0.0 101411
20:00+17e222314 0.0 101711
16 june, wed
wed1623:00+14e3427100 0.0 101941
02:00+11ene2231100 0.0 101910
05:00+11e223247 0.0 101822
08:00+12ene253380 0.0 1020115
11:00+24nne341691 0.0 1018631
14:00+29nne11125 0.0 10142143
17:00+26ese1115100 0.0 101311
20:00+17ese22235 0.0 101611
17 june, thu
thu1723:00+15ese33272 0.0 101827
02:00+13e33310 0.0 101840
05:00+12e33350 0.0 101830
08:00+13ene25430 0.0 1020116
11:00+25ne34230 0.0 1019770
14:00+30ene22140 0.0 10152524
17:00+27ese22170 0.0 101521
20:00+18se33260 0.0 101831
18 june, fri
fri1823:00+16ese36320 0.0 102088
02:00+14ene23360 0.0 102024
05:00+13ese36390 0.0 102180
08:00+14e37350 0.0 1023143
11:00+26e46190 0.0 1021944
14:00+29e45140 0.0 10182786
17:00+27ese46160 0.0 1018482
20:00+18se411270 0.0 1022177
19 june, sat
sat1923:00+17ese414270 0.0 1023307
02:00+18ese616360 0.0 1023677
05:00+16e615453 0.0 1024667
08:00+15ese614545 0.0 1027755
11:00+22e79390 0.0 10261106
14:00+26e56300 0.0 10221883
17:00+25ese56325 0.0 10222096
20:00+19se714465 0.0 1025588